Starlink 6155

operational
NORAD ID: 57076 Int'l Des: 2023-088 Owner: SPXS Country: US Constellation: starlink
LEOCIRCULAR

Über Starlink 6155

Beschreibung wird geladen...

Live-Position

3D-Globus wird geladen...

Nächste Überflüge

Höhenverlauf

Altitude vs Time

uPlot chart will show altitude changes over time

Zweizeiliger Elementsatz

1 57076U 23088AE 25353.77855044 -.00000080 00000-0 91539-5 0 9995
2 57076 43.0022 169.1422 0001059 261.7735 98.2987 15.02536267138326
Epoch: 19. Dez. 2025 • Age: 7 hours

Aktueller Status

Höhe 559.2 km
Geschwindigkeit 7.59 km/s
Subsatellitenpunkt 23.71°N, 154.86°W
Startdatum 22. Juni 2023
Alter 2.4 years
Typ internet

Technische Details

Klassifizierung Payload
Masse 305.00 kg
Trockenmasse 290.00 kg
Gesamtmasse 305.00 kg
Länge 0.20 m
Durchmesser 2.80 m
Spannweite 9.00 m
Form Box + pan
Hersteller SPXS
Bus-Typ Starlink
Phasenstatus In Orbit
Besitzer/Staat SPXS/US

Große Konstellationen

Loading constellations...